TimeCDT,TemperatureF,Dew PointF,Humidity,Sea Level PressureIn,VisibilityMPH,Wind Direction,Wind SpeedMPH,Gust SpeedMPH,PrecipitationIn,Events,Conditions,WindDirDegrees,DateUTC
12:15 AM,36.3,22.5,57,30.17,10.0,North,6.9,-,N/A,,Scattered Clouds,360,2013-05-12 05:15:00
12:35 AM,35.4,23.4,62,30.17,10.0,NNW,6.9,-,N/A,,Scattered Clouds,340,2013-05-12 05:35:00
12:55 AM,36.7,22.6,57,30.17,10.0,North,6.9,-,N/A,,Overcast,360,2013-05-12 05:55:00
1:15 AM,36.7,21.7,55,30.17,10.0,North,9.2,17.3,N/A,,Mostly Cloudy,360,2013-05-12 06:15:00
1:35 AM,35.6,24.1,63,30.17,10.0,NNW,9.2,-,N/A,,Overcast,330,2013-05-12 06:35:00
1:55 AM,35.2,24.4,65,30.17,10.0,NNW,8.1,-,N/A,,Overcast,330,2013-05-12 06:55:00
2:15 AM,32.9,23.4,68,30.17,10.0,NW,6.9,-,N/A,,Overcast,320,2013-05-12 07:15:00
2:35 AM,30.6,22.5,72,30.17,10.0,NW,6.9,-,N/A,,Scattered Clouds,310,2013-05-12 07:35:00
2:55 AM,29.5,22.1,74,30.16,10.0,NW,6.9,-,N/A,,Clear,310,2013-05-12 07:55:00
3:15 AM,29.1,22.5,76,30.16,10.0,NW,6.9,-,N/A,,Clear,310,2013-05-12 08:15:00
3:35 AM,28.2,22.5,79,30.16,10.0,NW,5.8,-,N/A,,Clear,320,2013-05-12 08:35:00
3:55 AM,28.0,21.7,77,30.17,10.0,NW,4.6,-,N/A,,Clear,320,2013-05-12 08:55:00
4:35 AM,30.0,21.9,72,30.16,10.0,Calm,Calm,-,N/A,,Clear,0,2013-05-12 09:35:00
4:55 AM,30.2,21.6,70,30.17,10.0,West,3.5,-,N/A,,Clear,280,2013-05-12 09:55:00
5:15 AM,29.5,21.2,71,30.17,10.0,Calm,Calm,-,N/A,,Clear,0,2013-05-12 10:15:00
5:35 AM,29.3,21.2,72,30.17,10.0,WNW,5.8,-,N/A,,Clear,300,2013-05-12 10:35:00
5:55 AM,28.8,21.2,73,30.18,10.0,WNW,4.6,-,N/A,,Clear,300,2013-05-12 10:55:00
6:15 AM,29.3,22.3,75,30.18,10.0,WNW,5.8,-,N/A,,Clear,300,2013-05-12 11:15:00
6:35 AM,30.7,23.0,73,30.19,10.0,NW,6.9,-,N/A,,Clear,310,2013-05-12 11:35:00
6:55 AM,32.0,23.2,70,30.19,10.0,WNW,4.6,-,N/A,,Clear,300,2013-05-12 11:55:00
7:15 AM,33.1,23.0,66,30.19,10.0,WNW,4.6,-,N/A,,Clear,300,2013-05-12 12:15:00
7:35 AM,34.3,21.9,60,30.19,10.0,NNW,8.1,-,N/A,,Clear,330,2013-05-12 12:35:00
7:55 AM,35.6,22.1,58,30.20,10.0,NNW,9.2,-,N/A,,Clear,330,2013-05-12 12:55:00
8:15 AM,36.3,21.7,56,30.19,10.0,North,6.9,-,N/A,,Clear,350,2013-05-12 13:15:00
8:35 AM,37.6,22.3,54,30.20,10.0,NNW,11.5,-,N/A,,Scattered Clouds,340,2013-05-12 13:35:00
8:55 AM,37.8,20.8,51,30.20,10.0,NNW,11.5,-,N/A,,Scattered Clouds,340,2013-05-12 13:55:00
9:15 AM,38.5,20.8,49,30.19,10.0,NNW,9.2,17.3,N/A,,Clear,340,2013-05-12 14:15:00
9:35 AM,39.4,21.4,49,30.19,10.0,NW,12.7,-,N/A,,Clear,320,2013-05-12 14:35:00
9:55 AM,40.5,21.4,47,30.19,10.0,NNW,9.2,-,N/A,,Clear,330,2013-05-12 14:55:00
10:15 AM,42.1,21.2,43,30.19,10.0,North,9.2,16.1,N/A,,Clear,350,2013-05-12 15:15:00
10:35 AM,42.6,20.1,41,30.18,10.0,North,11.5,16.1,N/A,,Clear,350,2013-05-12 15:35:00
10:55 AM,44.4,20.1,38,30.18,10.0,North,13.8,19.6,N/A,,Clear,350,2013-05-12 15:55:00
11:15 AM,45.3,19.0,35,30.17,10.0,NNW,10.4,17.3,N/A,,Clear,340,2013-05-12 16:15:00
11:35 AM,46.2,17.1,31,30.17,10.0,NW,18.4,25.3,N/A,,Clear,320,2013-05-12 16:35:00
11:55 AM,46.6,17.4,31,30.16,10.0,NW,15.0,21.9,N/A,,Clear,320,2013-05-12 16:55:00
12:15 PM,47.8,17.6,30,30.16,10.0,NNW,13.8,19.6,N/A,,Clear,340,2013-05-12 17:15:00
12:35 PM,47.8,15.8,28,30.15,10.0,NNW,19.6,26.5,N/A,,Clear,330,2013-05-12 17:35:00
12:55 PM,48.9,17.6,29,30.15,10.0,NNW,12.7,26.5,N/A,,Clear,330,2013-05-12 17:55:00
1:15 PM,48.9,17.4,29,30.14,10.0,NW,13.8,25.3,N/A,,Clear,310,2013-05-12 18:15:00
1:35 PM,50.4,18.5,28,30.13,10.0,NNW,16.1,20.7,N/A,,Clear,330,2013-05-12 18:35:00
1:55 PM,50.4,17.6,27,30.12,10.0,North,12.7,26.5,N/A,,Clear,360,2013-05-12 18:55:00
2:15 PM,51.1,17.1,26,30.12,10.0,NNW,15.0,21.9,N/A,,Clear,340,2013-05-12 19:15:00
2:35 PM,52.5,18.3,26,30.12,10.0,NNW,19.6,27.6,N/A,,Clear,330,2013-05-12 19:35:00
2:55 PM,52.3,19.2,27,30.11,10.0,NW,16.1,-,N/A,,Clear,320,2013-05-12 19:55:00
3:15 PM,52.0,17.2,25,30.11,10.0,NW,13.8,24.2,N/A,,Clear,320,2013-05-12 20:15:00
3:35 PM,53.2,18.7,26,30.11,10.0,NNW,15.0,21.9,N/A,,Clear,330,2013-05-12 20:35:00
3:55 PM,53.8,18.1,25,30.10,10.0,NNW,11.5,21.9,N/A,,Clear,340,2013-05-12 20:55:00
4:15 PM,53.6,18.7,25,30.10,10.0,NW,11.5,18.4,N/A,,Clear,310,2013-05-12 21:15:00
4:35 PM,53.8,20.3,27,30.09,10.0,NW,16.1,26.5,N/A,,Clear,320,2013-05-12 21:35:00
4:55 PM,53.6,18.1,25,30.09,10.0,NW,15.0,20.7,N/A,,Clear,320,2013-05-12 21:55:00
5:15 PM,53.8,18.9,25,30.09,10.0,NW,13.8,21.9,N/A,,Clear,320,2013-05-12 22:15:00
5:35 PM,53.6,18.1,25,30.09,10.0,NNW,11.5,-,N/A,,Clear,340,2013-05-12 22:35:00
5:55 PM,53.6,17.6,24,30.09,10.0,North,6.9,-,N/A,,Clear,360,2013-05-12 22:55:00
6:15 PM,53.2,18.0,25,30.09,10.0,North,9.2,-,N/A,,Clear,360,2013-05-12 23:15:00
6:35 PM,53.6,17.4,24,30.09,10.0,North,11.5,-,N/A,,Clear,360,2013-05-12 23:35:00
6:55 PM,52.7,17.8,25,30.08,10.0,North,11.5,-,N/A,,Clear,350,2013-05-12 23:55:00
7:15 PM,52.2,17.4,25,30.09,10.0,NNW,10.4,-,N/A,,Clear,340,2013-05-13 00:15:00
7:35 PM,51.1,16.9,26,30.09,10.0,NE,6.9,-,N/A,,Clear,40,2013-05-13 00:35:00
7:55 PM,47.1,19.0,33,30.09,10.0,ENE,5.8,-,N/A,,Clear,70,2013-05-13 00:55:00
8:15 PM,44.8,19.9,37,30.09,10.0,East,6.9,-,N/A,,Clear,90,2013-05-13 01:15:00
8:35 PM,42.4,19.4,40,30.10,10.0,East,5.8,-,N/A,,Clear,90,2013-05-13 01:35:00
8:55 PM,42.4,19.9,41,30.10,10.0,East,3.5,-,N/A,,Clear,80,2013-05-13 01:55:00
9:15 PM,41.2,18.5,40,30.11,10.0,East,4.6,-,N/A,,Clear,100,2013-05-13 02:15:00
9:35 PM,40.3,20.3,45,30.12,10.0,East,3.5,-,N/A,,Clear,100,2013-05-13 02:35:00
9:55 PM,40.1,20.5,45,30.12,10.0,ENE,3.5,-,N/A,,Clear,70,2013-05-13 02:55:00
10:15 PM,36.5,21.0,54,30.12,10.0,NE,5.8,-,N/A,,Clear,50,2013-05-13 03:15:00
10:35 PM,36.1,25.9,66,30.13,10.0,NNE,5.8,-,N/A,,Clear,30,2013-05-13 03:35:00
10:55 PM,35.8,26.2,68,30.13,10.0,NNE,5.8,-,N/A,,Clear,30,2013-05-13 03:55:00
11:15 PM,35.8,26.1,68,30.13,10.0,NE,5.8,-,N/A,,Clear,40,2013-05-13 04:15:00
11:35 PM,34.5,25.9,71,30.14,10.0,NE,4.6,-,N/A,,Clear,40,2013-05-13 04:35:00
11:55 PM,31.5,25.9,80,30.14,10.0,Calm,Calm,-,N/A,,Clear,0,2013-05-13 04:55:00